Location: Góry Miechowskie
(50.3599°N, 20.1803°E)
Time: 21:42:21
(UTC+00:00)

Transit 2A Rocket - Pass Details

Date: 18 September 2024
Orbit: 582 x 908 km, 66.7° (Epoch: 09 October)

Event Time Altitude Azimuth Distance (km) Brightness Sun altitude
Rises 02:28:21 0° 308° (NW) 3,546 8.2 -17.9°
Reaches altitude 10° 02:31:54 10° 328° (NNW) 2,592 7.7 -17.4°
Maximum altitude 02:35:45 17° 8° (N) 2,094 7.6 -16.9°
Drops below altitude 10° 02:39:31 10° 48° (NE) 2,516 8.8 -16.3°
Sets 02:42:53 0° 69° (ENE) 3,398 10.2 -15.8°
